Probability
0 0 0 0 0 0 0 0 0 0 0 0 0 0 0 0 0 0 0 0 0 0 0 0 0 0 0 0 0 0 0 0 0 0 0 0 0 0
0 0 0 0 0 0 0 0 0 0 0 0 0 0 0 0 0 0 0 0 0 0 0 0 0 0 0 0 0 0 0 0 0 0 0 0 0 0
0 0 0 0 0 0 0 0 0 0 0 0 0 0 0 0 0 0 0 0 0 0 0 0 0 0 0 0 0 0 0 0 0 0 0 0 0 0
0 0 0 0 0 0 0 0 0 0 0 0 0 0 0 0 0 0 0 0 0 0 0 0 0 0 0 0 0 0 0 0 0 0 0 0 0 0
0 0 0 0 0 0 0 0 0 0 0 0 0 0 0 0 0 0 0 0 0 0 0 0 0 0 0 0 0 0 0 0 0 0 0 0 0 0
0 0 0 0 0 0 0 0 0 0 0 0 0 0 0 0 0 0 0 0 0 0 0 0 0 0 0 0 0 0 0 0 0 0 0 0 0 0
0 0 0 0 0 0 0 0 0 0 0 0 0 0 0 0 0 0 0 0 0 0 0 0 0 0 0 0 0 0 0 0 0 0 0 0 0 0
0 0 0 0 0 0 0 0 0 0 0 0 0 0 0 0 0 0 0 0 0 0 0 0 0 0 0 0 0 0 0 0 0 0 0 0 0 0
0 0 0 0 0 0 0 0 0 0 0 0 0 0 0 0 0 0 0 0 0 0 0 0 0 0 0 0 0 0 0 0 0 0 0 0 0 0
0 0 0 0 0 0 0 0 0 0 0 0 0 0 0 0 0 0 0 0 0 0 0 0 0 0 0 0 0 0 0 0 0 0 0 0 0 0
0 0 0 0 0 0 0 0 0 0 0 0 0 0 0 0 0 0 0 0 0 0 0 0 0 0 0 0 0 0 0 0 0 0 0 0 0 0
0 0 0 0 0 0 0 0 0 0 0 0 0 0 0 0 0 0 0 0 0 0 0 0 0 0 0 0 0 0 0 0 0 0 0 0 0 0
0 0 0 0 0 0 0 0 0 0 0 0 0 0 0 0 0 0 0 0 0 0 0 0 0 0 0 0 0 0 0 0 0 0 0 0 0 0
0 0 0 0 0 0 0 0 0 0 0 0 0 0 0 0 0 0 0 0 0 0 0 0 0 0 0 0 0 0 0 0 0 0 0 0 0 0
0 0 0 0 0 0 0 0 0 0 0 0 0 0 0 0 0 0 0 0 0 0 0 0 0 0 0 0 0 0 0 0 0 0 0 0 0 0
0 0 0 0 0 0 0 0 0 0 0 0 0 0 0 0 0 0 0 0 0 0 0 0 0 0 0 0 0 0 0 0 0 0 0 0 0 0
0 0 0 0 0 0 0 0 0 0 0 0 0 0 0 0 0 0 0 0 0 0 0 0 0 0 0 0 0 0 0 0 0 0 0 0 0 0
0 0 0 0 0 0 0 0 0 0 0 0 0 0 0 0 0 0 0 0 0 0 0 0 0 0 0 0 0 0 0 0 0 0 0 0 0 0
0 0 0 0 0 0 0 0 0 0 0 0 0 0 0 0 0 0 0 0 0 0 0 0 0 0 0 0 0 0 0 0 0 0 0 0 0 0
0 0 0 0 0 0 0 0 0 0 0 0 0 0 0 0 0 0 0 0 0 0 0 0 0 0 0 0 0 0 0 0 0 0 0 0 0 0
0 0 0 0 0 0 0 0 0 0 0 0 0 0 0 0 0 0 0 0 0 0 0 0 0 0 0 0 0 0 0 0 0 0 0 0 0 0
0 0 0 0 0 0 0 0 0 0 0 0 0 0 0 0 0 0 0 0 0 0 0 0 0 0 0 0 0 0 0 0 0 0 0 0 0 0
0 0 0 0 0 0 0 0 0 0 0 0 0 0 0 0 0 0 0 0 0 0 0 0 0 0 0 0 0 0 0 0 0 0 0 0 0 0
Wind_Speed
3 3 2 2 2 1 1 2 2 2 3 3 1 1 2 1 3 2 2 5 7 7 8 8 9 9 10 10 11 11 11 11 11 12 12 13 13 12
2 3 3 2 2 2 2 2 2 2 3 2 2 3 3 3 4 2 2 6 6 7 8 8 8 9 9 10 10 10 10 11 11 12 12 13 13 13
3 3 4 3 2 2 2 2 2 2 4 4 2 2 3 2 3 2 2 2 3 6 8 8 8 8 9 9 10 10 10 11 11 12 13 13 13 13
4 3 4 3 3 2 2 3 3 3 3 4 3 2 2 2 2 3 3 3 2 5 7 8 8 9 9 9 9 10 10 11 11 12 12 12 13 14
4 4 4 3 3 3 3 3 2 2 2 2 3 2 2 2 2 3 3 2 3 4 6 7 8 9 9 10 10 10 10 10 11 11 12 12 13 14
4 4 4 4 4 4 3 3 2 2 2 2 2 2 2 2 2 2 3 2 3 3 4 6 7 9 9 10 10 9 9 10 10 11 12 12 12 13
4 4 4 4 5 4 3 3 2 2 2 2 2 2 2 2 2 2 3 3 3 2 2 3 3 3 4 7 8 8 9 10 10 11 12 12 12 13
4 3 3 4 5 6 6 5 4 4 3 3 3 3 4 3 2 2 2 3 3 2 2 3 3 3 3 3 5 8 9 10 10 11 11 12 12 12
4 3 3 3 4 3 5 5 5 6 6 4 4 5 4 4 3 3 2 3 4 3 2 4 3 3 3 3 6 8 9 10 10 10 11 11 12 12
4 4 3 3 3 3 2 2 2 3 4 4 4 4 4 3 3 2 3 3 3 2 2 4 3 3 4 3 6 8 9 9 10 11 11 11 11 11
3 3 3 3 4 4 2 2 2 2 2 3 4 4 4 4 3 1 1 2 4 3 1 2 2 3 3 3 4 6 8 9 11 11 12 12 11 10
2 2 4 4 4 4 3 3 3 2 1 1 1 2 2 2 4 2 2 2 3 2 1 1 2 2 3 2 2 2 4 7 10 11 12 12 11 6
2 2 2 3 4 4 3 2 3 2 1 1 1 1 1 1 1 1 1 2 3 3 2 1 2 2 2 4 3 2 2 3 4 6 9 12 11 8
2 1 2 3 3 3 2 1 2 2 1 1 1 1 1 1 1 1 2 2 2 3 3 2 2 3 3 4 4 3 3 3 3 4 4 8 9 10
0 1 2 2 2 1 1 2 1 1 1 1 1 1 1 1 1 1 1 1 2 2 2 2 2 2 3 4 4 4 4 4 2 3 4 4 4 4
0 0 1 2 1 1 0 0 0 1 1 1 1 1 1 1 1 1 1 1 1 2 2 2 2 3 3 4 4 5 4 4 4 4 4 4 4 3
0 0 0 0 0 0 0 0 0 0 0 0 1 1 1 1 1 1 1 1 1 2 2 2 2 2 3 3 3 4 4 4 4 4 5 5 4 3
1 1 1 0 0 0 0 0 0 0 0 1 1 1 1 1 1 1 1 1 1 2 2 2 2 3 2 2 3 3 3 4 4 4 4 5 6 4
1 1 1 1 1 1 1 1 1 1 1 1 1 1 1 1 1 1 1 1 1 2 2 2 2 2 3 4 3 2 3 4 4 4 4 4 5 6
0 1 1 1 1 1 1 1 1 1 1 1 1 1 1 1 1 1 1 1 2 2 2 2 2 2 3 4 4 4 5 4 4 5 5 5 4 6
1 1 1 1 1 1 1 1 1 1 1 1 1 1 1 1 1 1 1 2 2 2 2 2 2 4 2 2 3 3 3 5 5 4 5 5 5 4
1 1 1 1 1 1 1 1 1 1 1 1 1 1 1 1 1 1 1 1 1 2 2 2 2 2 2 2 3 4 5 5 5 7 6 5 3 4
1 1 1 1 1 1 1 1 1 1 1 1 1 1 1 1 1 1 1 1 1 1 2 2 2 2 2 2 3 4 5 5 4 4 4 6 8 9
Wind_Direction
217 225 231 245 231 217 207 195 204 254 269 264 285 305 301 282 275 268 265 293 305 303 300 301 303 303 303 304 306 306 308 311 314 313 312 314 314 312
215 224 231 237 233 221 217 225 223 233 261 266 269 285 293 303 296 293 277 298 298 300 300 298 299 300 302 304 304 305 307 308 309 309 310 311 313 313
228 221 230 232 232 227 219 219 229 228 256 279 281 289 296 294 306 298 286 276 282 293 299 298 299 300 300 301 303 306 308 308 308 309 311 313 315 315
231 222 231 237 242 234 223 229 234 236 241 271 283 291 293 287 298 303 303 299 288 292 298 300 300 300 299 301 302 303 307 307 307 309 311 313 314 315
231 220 227 231 239 242 236 231 237 253 248 254 274 285 292 291 302 302 299 297 295 292 297 299 299 301 302 302 303 304 304 305 307 310 312 312 312 312
235 221 222 227 230 235 236 233 235 244 247 249 261 272 280 280 284 289 303 296 293 297 302 301 300 303 302 304 306 305 305 306 308 311 311 310 311 311
236 227 226 233 237 239 243 230 225 232 240 243 250 266 270 266 270 276 290 297 299 292 299 295 297 293 292 297 303 305 306 307 308 310 309 309 309 308
232 228 229 230 242 255 260 255 241 229 232 237 247 248 254 256 266 271 285 301 300 289 304 294 289 290 289 283 290 302 307 309 308 308 309 310 311 310
223 221 237 245 247 239 250 255 254 251 244 235 236 242 249 243 242 258 266 285 284 282 300 293 289 288 290 294 299 308 312 315 317 320 319 316 315 314
225 221 217 223 236 238 240 246 249 256 247 236 228 241 245 239 230 245 263 287 288 285 278 286 294 293 298 288 291 302 312 320 323 323 321 319 319 319
236 229 217 215 240 249 228 236 266 272 263 256 261 265 270 272 271 269 280 289 295 292 275 267 286 298 290 281 282 298 313 319 321 321 322 322 322 323
238 241 234 238 242 244 216 210 239 257 264 271 269 282 273 263 274 245 227 261 291 289 273 294 288 312 306 286 285 301 312 317 322 322 322 322 322 321
224 232 236 254 255 256 251 218 240 255 204 212 240 252 267 269 276 283 266 246 265 272 265 296 285 288 280 297 301 295 299 307 315 316 320 322 321 320
220 225 228 245 269 282 277 248 263 281 202 204 217 241 257 271 281 286 282 276 264 261 266 275 279 285 288 292 297 307 308 303 306 307 310 320 321 319
208 233 257 256 264 263 248 257 267 202 182 202 229 248 253 254 265 280 291 302 309 297 291 280 275 281 278 283 292 299 307 306 302 311 314 313 307 307
78 150 280 282 281 250 240 263 145 193 198 216 234 247 259 258 262 274 296 313 323 320 319 310 291 279 278 279 282 292 297 299 313 313 310 305 304 299
140 103 110 141 117 98 83 119 135 133 267 227 236 259 269 272 280 286 278 296 300 302 319 330 316 294 274 268 281 287 297 300 302 311 316 310 302 297
202 180 194 206 218 216 245 267 206 236 244 258 253 255 265 276 291 298 295 286 291 297 306 316 325 325 321 302 258 279 296 298 304 307 307 303 304 308
207 211 218 225 228 225 232 246 257 265 246 245 261 260 262 267 277 285 293 300 300 301 302 303 313 319 316 311 303 287 295 303 308 308 306 298 296 302
189 228 235 233 226 220 228 248 257 258 259 249 259 260 252 259 267 275 280 289 297 299 306 312 311 302 288 292 293 297 296 296 303 305 305 301 292 295
223 234 240 237 232 239 239 243 251 250 253 261 264 265 254 253 258 264 269 285 295 300 307 308 303 308 297 298 297 300 302 302 295 292 301 305 309 314
226 232 243 238 229 239 241 240 248 251 253 252 255 266 260 251 255 257 259 277 289 291 296 302 309 314 313 306 300 303 309 314 310 306 297 289 297 306
234 236 235 236 228 230 238 236 244 251 253 253 250 257 253 258 261 256 260 267 274 286 302 314 324 326 313 301 299 304 309 316 321 324 315 312 306 296